TimeEST,TemperatureF,Dew PointF,Humidity,Sea Level PressureIn,VisibilityMPH,Wind Direction,Wind SpeedMPH,Gust SpeedMPH,PrecipitationIn,Events,Conditions,WindDirDegrees,DateUTC
12:15 AM,46.4,44.6,93,29.45,2.5,SSE,6.9,-,0.01,Rain,Light Rain,150,2012-01-13 05:15:00
12:25 AM,46.4,44.6,93,29.44,3.0,SSE,5.8,-,0.01,,Overcast,160,2012-01-13 05:25:00
12:53 AM,46.0,44.1,93,29.42,4.0,SE,4.6,-,0.01,,Overcast,140,2012-01-13 05:53:00
1:53 AM,46.0,44.1,93,29.39,4.0,SSE,5.8,-,N/A,,Overcast,150,2012-01-13 06:53:00
2:53 AM,48.0,45.0,89,29.34,8.0,South,6.9,-,N/A,,Overcast,180,2012-01-13 07:53:00
3:53 AM,48.9,44.1,83,29.31,9.0,South,6.9,-,N/A,,Overcast,180,2012-01-13 08:53:00
4:53 AM,48.0,43.0,83,29.27,9.0,South,9.2,-,N/A,,Partly Cloudy,180,2012-01-13 09:53:00
5:44 AM,48.2,44.6,87,29.30,6.0,WNW,17.3,32.2,0.02,Rain,Light Rain,300,2012-01-13 10:44:00
5:53 AM,46.9,41.0,80,29.31,7.0,WNW,17.3,26.5,0.03,Rain,Light Rain,290,2012-01-13 10:53:00
6:00 AM,44.6,39.2,81,29.33,5.0,NW,23.0,32.2,0.01,Rain,Rain,310,2012-01-13 11:00:00
6:09 AM,42.8,37.4,81,29.34,6.0,NW,16.1,33.4,0.02,Rain,Light Rain,320,2012-01-13 11:09:00
6:50 AM,42.8,35.6,76,29.36,10.0,WNW,9.2,17.3,0.03,,Overcast,290,2012-01-13 11:50:00
6:53 AM,42.1,36.0,79,29.35,10.0,WNW,9.2,-,0.03,,Overcast,290,2012-01-13 11:53:00
7:13 AM,42.8,33.8,70,29.38,10.0,West,13.8,21.9,N/A,,Overcast,280,2012-01-13 12:13:00
7:24 AM,42.8,33.8,70,29.39,10.0,WNW,19.6,26.5,N/A,,Overcast,290,2012-01-13 12:24:00
7:48 AM,41.0,32.0,70,29.41,10.0,WNW,16.1,26.5,0.00,Rain,Light Rain,300,2012-01-13 12:48:00
7:53 AM,39.9,32.0,73,29.39,10.0,WNW,12.7,26.5,0.00,Rain,Light Rain,300,2012-01-13 12:53:00
8:53 AM,37.9,28.0,68,29.45,5.0,West,16.1,35.7,0.00,Snow,Light Snow,280,2012-01-13 13:53:00
9:17 AM,37.4,28.4,70,29.47,7.0,West,17.3,28.8,0.00,Snow,Light Snow,280,2012-01-13 14:17:00
9:42 AM,37.4,26.6,65,29.49,9.0,WNW,16.1,27.6,0.00,,Mostly Cloudy,290,2012-01-13 14:42:00
9:53 AM,37.0,24.1,59,29.48,10.0,West,21.9,33.4,0.00,,Scattered Clouds,280,2012-01-13 14:53:00
10:53 AM,35.1,18.0,50,29.50,10.0,West,23.0,32.2,N/A,,Overcast,270,2012-01-13 15:53:00
11:53 AM,34.0,16.0,48,29.52,10.0,WNW,19.6,27.6,N/A,,Overcast,290,2012-01-13 16:53:00
12:53 PM,34.0,12.9,42,29.53,10.0,WNW,20.7,35.7,N/A,,Overcast,290,2012-01-13 17:53:00
1:53 PM,34.0,15.1,46,29.55,10.0,West,19.6,38.0,N/A,,Overcast,280,2012-01-13 18:53:00
2:53 PM,33.1,15.1,48,29.60,10.0,WNW,20.7,29.9,N/A,,Overcast,290,2012-01-13 19:53:00
3:53 PM,32.0,12.0,44,29.65,10.0,WNW,20.7,35.7,N/A,,Overcast,290,2012-01-13 20:53:00
4:53 PM,30.9,12.0,46,29.69,10.0,West,17.3,23.0,N/A,,Clear,280,2012-01-13 21:53:00
5:53 PM,30.9,12.0,46,29.73,10.0,WNW,11.5,23.0,N/A,,Clear,290,2012-01-13 22:53:00
6:53 PM,30.9,14.0,50,29.76,10.0,WNW,12.7,-,N/A,,Clear,290,2012-01-13 23:53:00
7:53 PM,30.9,14.0,50,29.79,10.0,West,11.5,20.7,N/A,,Clear,270,2012-01-14 00:53:00
8:53 PM,30.9,14.0,50,29.81,10.0,WNW,12.7,-,N/A,,Clear,290,2012-01-14 01:53:00
9:53 PM,30.9,15.1,52,29.83,10.0,WNW,13.8,19.6,N/A,,Partly Cloudy,300,2012-01-14 02:53:00
10:53 PM,30.0,15.1,54,29.84,10.0,WNW,8.1,-,N/A,,Mostly Cloudy,300,2012-01-14 03:53:00
11:53 PM,30.9,15.1,52,29.86,10.0,WNW,10.4,-,N/A,,Overcast,300,2012-01-14 04:53:00